Weather History for Cut Bank, MT

Change the Weather History Date:

Tuesday, January 21, 2014

  Actual Average Record
Temperature  
Mean Temperature 34 °F 22 °F  
Max Temperature 43 °F 33 °F 59 °F (1981)
Min Temperature 24 °F 12 °F -43 °F (1927)
Degree Days  
Heating Degree Days 31 43  
Month to date heating degree days 745 906  
Since 1 July heating degree days 4274 4496  
Cooling Degree Days 0 0  
Month to date cooling degree days 0 0  
Year to date cooling degree days 0 0  
Moisture  
Dew Point 19 °F    
Average Humidity 54    
Maximum Humidity 78    
Minimum Humidity 29    
Precipitation  
Precipitation 0.00 in 0.01 in 1.72 in (1943)
Month to date precipitation 0.24 0.14  
Year to date precipitation 0.24 0.14  
Snow  
Snow 0.00 in - - ()
Snow Depth 0.00 in    
Sea Level Pressure  
Sea Level Pressure 30.30 in    
Wind  
Wind Speed 10 mph (NNW)    
Max Wind Speed 31 mph    
Max Gust Speed 38 mph    
Visibility 10 miles    
Events      
T = Trace of Precipitation, MM = Missing Value Source: NWS Daily Summary

Daily Weather History Graph

Daily Weather History Graph

Search for Another Location

Airport:

Trip Planner

Search our weather history database for the weather conditions in past years. The results will help you decide how hot, cold, wet, or windy it might be!

Date:

Astronomy

Jan. 21, 2014 Rise Set
Actual Time 8:11 AM MST 5:10 PM MST
Civil Twilight 7:36 AM MST 5:45 PM MST
Nautical Twilight 6:58 AM MST 6:24 PM MST
Astronomical Twilight 6:20 AM MST 7:01 PM MST
Moon 11:19 PM MST (1/21) 10:14 AM MST (1/21)
Length of Visible Light 10h 09m
Length of Day
8h 59m
Waning Gibbous, 74% of the Moon is Illuminated
Jan 21
Waning Gibbous
Jan 23
Last Quarter
Jan 30
New
Feb 6
First Quarter
Feb 14
Full

Hourly Weather History & Observations

Time (MST) Temp. Windchill Dew Point Humidity Pressure Visibility Wind Dir Wind Speed Gust Speed Precip Events Conditions
12:56 AM 42.1 °F 32.6 °F 14.0 °F 32% 30.16 in 10.0 mi West 23.0 mph 32.2 mph N/A   Clear
1:56 AM 42.1 °F 32.1 °F 14.0 °F 32% 30.14 in 10.0 mi West 25.3 mph 31.1 mph N/A   Clear
2:56 AM 36.0 °F 28.0 °F 15.1 °F 43% 30.19 in 10.0 mi NNW 11.5 mph - N/A   Clear
3:56 AM 32.0 °F 21.2 °F 15.1 °F 50% 30.22 in 10.0 mi NNW 16.1 mph - N/A   Clear
4:56 AM 30.0 °F 20.5 °F 15.1 °F 54% 30.25 in 10.0 mi NW 11.5 mph - N/A   Clear
5:56 AM 28.0 °F 18.6 °F 14.0 °F 56% 30.28 in 10.0 mi NNW 10.4 mph - N/A   Clear
6:56 AM 27.0 °F 16.7 °F 12.0 °F 53% 30.29 in 10.0 mi NNW 11.5 mph - N/A   Clear
7:56 AM 28.0 °F 17.5 °F 12.0 °F 51% 30.32 in 10.0 mi NW 12.7 mph - N/A   Clear
8:56 AM 30.0 °F 21.1 °F 12.9 °F 49% 30.33 in 10.0 mi North 10.4 mph - N/A   Clear
9:56 AM 32.0 °F 23.6 °F 12.0 °F 44% 30.34 in 10.0 mi North 10.4 mph - N/A   Clear
10:56 AM 33.1 °F 24.9 °F 12.9 °F 43% 30.34 in 10.0 mi North 10.4 mph - N/A   Clear
11:56 AM 39.0 °F 35.7 °F 18.0 °F 43% 30.30 in 10.0 mi NNE 4.6 mph - N/A   Clear
12:56 PM 41.0 °F 35.2 °F 21.0 °F 45% 30.29 in 10.0 mi North 9.2 mph - N/A   Clear
1:56 PM 42.1 °F 36.6 °F 23.0 °F 47% 30.27 in 10.0 mi North 9.2 mph - N/A   Scattered Clouds
2:56 PM 37.9 °F 31.5 °F 24.1 °F 57% 30.29 in 10.0 mi NNE 9.2 mph - N/A   Partly Cloudy
3:56 PM 37.0 °F 29.8 °F 25.0 °F 62% 30.32 in 10.0 mi NNE 10.4 mph - N/A   Overcast
4:56 PM 35.1 °F 28.6 °F 25.0 °F 67% 30.32 in 10.0 mi NNE 8.1 mph - N/A   Overcast
5:56 PM 32.0 °F 25.6 °F 24.1 °F 73% 30.36 in 10.0 mi North 6.9 mph - N/A   Overcast
6:56 PM 32.0 °F 27.5 °F 25.0 °F 75% 30.37 in 10.0 mi NNW 4.6 mph - N/A   Overcast
7:56 PM 30.0 °F 24.1 °F 24.1 °F 79% 30.38 in 10.0 mi NNW 5.8 mph - N/A   Overcast
8:56 PM 30.0 °F 24.1 °F 24.1 °F 79% 30.37 in 10.0 mi WNW 5.8 mph - N/A   Overcast
9:56 PM 30.9 °F 25.2 °F 25.0 °F 79% 30.35 in 10.0 mi WNW 5.8 mph - N/A   Overcast
10:56 PM 30.9 °F 26.2 °F 25.0 °F 79% 30.35 in 10.0 mi WNW 4.6 mph - N/A   Overcast
11:56 PM 30.9 °F - 25.0 °F 79% 30.32 in 10.0 mi Calm Calm - N/A   Overcast